GFSCGP_con_mucape_048.txt.gz
CAPE
0 0 0 17 8 0 18 1 0 0 0 0 92 152 169 929 1521 1709 2133 2335 2323 2285 2372 2561 2830 2904 2958 3193 3250 3083 2256 1345 1185 1450 1249 484 61 46 335 294 970 1502 1936 1452
0 0 0 0 0 5 20 18 0 0 0 7 49 223 166 445 1386 1583 1999 2325 2520 2450 2570 2585 2855 2868 2982 3297 3394 2982 2515 1745 1594 1391 820 497 408 348 321 897 1480 1351 1717 1564
0 0 0 25 66 21 0 1 0 0 0 0 0 110 85 455 1236 1317 1456 2013 2431 2457 2690 2901 2916 3054 2954 3142 3350 3213 2457 2432 1784 887 709 719 366 576 960 1543 1462 1703 1642 1521
0 0 0 0 0 0 0 0 0 0 0 13 0 50 44 12 57 647 1070 1294 1982 2434 2657 3099 3229 3297 3185 3143 3003 3245 2742 2430 1451 947 687 738 336 636 1527 1541 1609 1368 1143 1049
0 0 0 0 0 0 0 0 0 0 0 0 0 0 1 60 278 526 1234 1183 1586 2287 2729 3009 3284 3335 3256 3068 2916 2981 2770 2049 1233 928 786 921 1209 1674 1679 1496 1698 1661 1085 694
0 0 0 0 0 0 0 0 0 0 0 0 12 0 0 97 363 502 816 2189 1810 2175 2756 2973 3290 3439 3323 3031 2804 2659 2318 2124 1218 967 1172 1759 2272 1823 1645 1620 1103 552 351 333
0 0 0 0 0 0 0 0 0 0 0 0 66 11 4 232 391 833 1109 1329 2412 2409 2771 3195 3543 3425 3300 3039 2775 2599 2510 2081 1379 1036 1382 2094 2098 1960 1623 1352 634 416 247 196
0 0 0 0 0 0 0 0 5 21 6 1 32 0 74 253 456 1371 1994 1507 2914 2949 3163 3474 3549 3432 3249 2983 3051 2780 2564 1806 1307 1144 1600 2135 1955 1545 1215 849 480 275 134 81
0 0 0 0 0 13 6 5 4 14 0 0 2 20 3 424 1037 1590 2188 3043 3293 3319 3334 3541 3587 3441 3250 3434 3251 2899 2573 1628 1404 1419 2186 2157 1884 1438 1031 726 422 224 162 124
0 0 0 0 0 0 32 19 21 18 19 41 50 21 61 91 671 1713 2268 3129 3538 3520 3486 3705 3586 3538 3623 3361 3166 2706 2303 1517 1563 1797 1861 1763 1299 1196 867 471 323 230 197 221
0 0 0 0 8 41 25 47 45 70 103 145 91 87 98 240 1142 1961 2372 2515 2827 3109 3351 3778 3669 3658 3348 3150 2849 2560 2203 2044 1621 1401 532 151 283 687 520 359 223 182 189 181
0 0 0 0 0 1 45 94 97 102 286 61 183 123 130 438 1290 1364 1933 2186 2259 2853 3422 3687 3834 3722 3429 3232 3139 2892 2114 1556 1387 685 101 192 805 624 383 224 156 120 66 57
0 0 25 4 1 8 30 47 137 193 519 183 98 188 658 974 1128 1170 1864 1845 1947 2216 3496 3745 3788 3891 3677 3442 3214 2694 2227 1587 874 401 715 995 926 570 368 259 145 125 34 2
0 0 6 30 15 24 209 135 26 304 181 296 123 243 208 525 909 1315 1340 1405 1256 1546 2436 3467 3810 3764 3815 3671 3192 2915 2505 1101 493 467 972 1077 809 628 416 254 150 111 49 8
0 3 13 0 1 50 181 171 12 217 267 282 146 119 831 1180 1187 1383 1070 890 865 1370 2323 2735 3499 3801 3830 3421 3049 2798 2354 1446 1045 1290 1255 1310 959 706 503 333 196 94 54 6
0 72 20 0 0 0 11 99 102 139 252 289 200 421 939 936 1046 1113 1024 884 996 1150 1932 2964 3296 3595 3633 3389 2947 2307 1651 1259 1333 1403 1291 1330 1023 803 522 361 277 151 90 49
128 85 260 1 5 0 5 43 142 213 253 238 293 1077 949 1262 1147 1156 1017 957 976 948 1168 2123 3155 3444 3439 3296 2828 2287 1480 1102 1375 1593 1482 1412 1118 994 854 733 377 249 135 78
544 482 279 109 350 111 152 539 130 212 358 439 838 1104 1094 1386 1353 1418 1190 1237 2359 2412 2007 1607 2691 3221 3055 2845 2470 2462 2110 821 999 1667 1745 1399 1096 561 803 831 557 262 140 90
707 608 393 479 280 236 564 805 711 793 558 875 351 1036 1268 1018 1142 1440 1557 1757 1690 1784 1722 1522 2069 3214 3083 2523 2189 1703 1711 1129 928 1555 1598 1324 925 423 674 554 258 200 100 53
555 1056 677 448 342 309 825 983 1007 956 934 1267 1319 1338 1372 1221 1428 1660 1700 1656 1285 1277 1532 1588 2184 3101 2900 2480 1986 1532 1754 1593 1339 1883 1640 968 861 953 803 385 266 95 132 140
361 359 306 423 403 537 691 829 564 542 686 778 1447 1457 1503 1689 2424 2173 2028 1640 1340 1489 1666 1804 1691 2452 2578 2136 1906 1546 1451 1482 1532 1552 1540 1255 1129 1221 842 249 96 253 247 119
200 182 205 323 267 404 1491 822 662 1983 1838 1575 1401 1591 1601 2122 1752 1851 1907 1980 1915 1700 1549 1666 1761 1696 1626 1650 1732 1678 1521 900 649 477 656 935 881 995 469 561 164 35 39 48
171 565 164 307 315 1683 1977 2029 2058 2425 2446 1968 1694 1617 1778 1706 1603 1599 1700 1758 1728 1526 1256 1263 1507 1607 1691 1639 1488 1297 1171 972 965 655 658 734 686 566 778 949 812 82 14 47
528 620 428 496 1181 1665 2051 1953 2239 2517 2460 1882 1653 1706 1748 1828 1742 1716 1675 1666 1641 1255 1065 950 1064 592 416 443 723 936 1117 1077 1030 846 608 401 355 237 192 189 169 304 344 196
351 596 878 663 1230 1336 1751 2088 2365 2562 2320 2052 1593 1527 1621 1806 1660 1744 1905 1716 1190 1107 917 747 614 282 102 51 73 188 388 466 483 532 484 384 319 247 175 100 225 215 298 90
314 524 277 773 1505 1692 1987 2050 2360 2543 2366 2216 1990 1938 1895 1915 1848 1748 1647 1415 1194 1040 783 656 622 183 70 50 48 49 69 69 79 109 122 127 114 102 71 367 98 96 151 152

GFSCGP_con_mucape_051.txt.gz
CAPE
0 0 0 2 33 87 43 40 84 8 0 0 19 160 248 277 421 907 1757 2095 1943 2120 2299 2560 2771 2776 2986 3335 3592 3831 3487 2316 2204 2138 1921 903 272 15 59 348 363 1645 1614 938
0 0 0 0 13 52 50 75 50 49 0 0 172 166 192 163 360 625 1304 1956 2215 2156 2632 2780 3129 3203 3235 3548 3864 3873 3635 3020 2416 1883 1677 1236 500 161 281 480 705 1821 1663 1901
0 0 0 0 3 19 16 93 141 59 23 0 35 86 264 207 254 610 700 1326 2055 2316 2682 2923 3203 3409 3284 3574 3965 3991 3336 2837 2809 1740 1350 1252 760 850 587 1252 1492 1380 1545 1487
0 0 0 0 0 0 43 60 21 1 3 64 71 139 266 343 145 164 416 872 1770 2337 2676 3175 3304 3469 3402 3545 3819 3965 3303 3344 2671 1608 1127 1113 725 615 1905 2564 1684 1830 1305 1216
0 0 0 0 0 0 0 0 0 0 4 43 135 114 298 187 67 287 703 1202 1394 2266 2620 3183 3239 3655 3635 3596 3719 3820 3395 3359 2085 1674 1357 1403 1339 1457 1531 2785 2017 2002 1871 775
0 0 0 0 0 0 0 0 0 1 15 59 92 108 182 242 407 291 1054 1597 1650 2162 2596 3073 3491 3839 3859 3754 3586 3572 3283 2977 2127 1604 1502 1991 1893 2081 2248 1817 2041 706 390 554
0 0 0 0 0 0 0 2 61 65 67 62 137 103 102 321 408 379 834 1961 1893 2207 2729 3214 3741 4078 4011 3705 3472 3346 3083 2792 2086 1516 1557 2087 2364 2457 2208 1833 723 1078 288 350
0 0 0 0 0 0 0 1 73 182 235 176 149 29 63 243 316 952 1182 1369 2079 2124 2829 3402 3949 4079 3886 3629 3425 3202 3083 3012 2216 1439 1817 2370 2441 2312 1496 1208 905 554 281 198
0 0 0 0 0 0 5 5 14 89 127 181 141 127 249 142 312 1083 1710 2284 2266 2537 3092 3732 3983 3925 3710 3609 3657 3346 3093 2623 1925 1481 1875 2321 2475 1561 1625 1099 682 736 430 402
0 1 0 0 0 0 22 83 45 88 111 261 197 143 411 249 412 1379 2312 2934 3039 3022 3429 3833 3961 3813 3657 3806 3713 3281 2865 2502 1858 1590 1919 1983 1025 1371 1033 693 619 340 374 346
0 8 45 0 3 27 15 119 132 201 290 297 121 253 342 375 1062 1650 2193 3017 2997 2615 3162 3739 3808 3839 3922 3607 3402 3107 2797 2261 2197 1899 1155 207 369 730 1061 616 316 294 711 498
0 2 27 29 12 0 63 128 82 213 300 276 198 182 39 731 1044 1498 2256 2540 2642 2712 2895 3662 3786 4046 3463 3394 3142 2819 2730 2613 2068 1071 750 135 246 567 624 330 261 229 357 205
0 0 26 24 22 20 47 177 240 300 363 346 482 231 405 728 1124 1366 2154 2219 2456 2889 3490 3905 4202 4104 3735 3536 3643 2833 2290 1813 1237 743 192 348 765 880 475 251 231 191 147 77
0 0 2 89 86 118 121 40 43 109 284 387 252 413 345 341 1332 1708 2092 2258 2285 2712 3768 4285 4336 4216 3844 3811 3421 3004 2410 1524 841 637 757 1369 1549 675 412 321 253 207 150 98
0 0 0 7 15 60 120 120 157 74 143 374 414 95 774 981 1377 1822 1753 1733 1464 1891 2172 3249 3923 4167 4337 3803 3055 2886 1936 1089 839 807 1173 1464 1398 756 511 332 244 226 160 98
0 1 17 4 2 0 30 154 257 191 183 205 174 403 33 1039 1588 1599 1579 1386 1498 1691 2565 2790 3197 3858 4025 3554 2850 2548 1967 1379 1419 1203 1458 1362 1326 902 754 462 313 247 188 159
126 98 129 57 34 16 6 29 263 284 277 429 475 1202 453 1588 1680 1660 1524 1450 1452 1415 1710 3149 3490 3832 3929 3520 2785 2301 1871 1700 1682 1560 1686 1637 1468 1214 878 728 549 315 261 230
787 643 532 148 154 97 1 13 104 242 368 451 1159 808 717 1736 1887 1972 1769 1659 2461 2893 2185 1904 3344 3764 3838 3631 2829 2345 1746 1636 1780 1756 1835 1862 1763 1073 531 574 356 589 390 245
372 861 405 313 170 146 157 340 223 281 281 414 1062 1385 1793 1849 1917 1953 2169 2551 2393 2732 2834 2834 3265 3840 3650 3294 3001 2801 2211 1654 1541 1881 2097 2025 1634 1366 993 775 701 458 248 166
440 878 935 491 260 395 406 313 295 301 653 1166 962 1261 1361 1564 797 1225 1990 2240 2329 2223 1988 2017 2692 3627 3644 3362 3032 2673 2459 1854 1406 1603 2057 2125 1610 1454 1208 1052 937 744 219 49
286 640 558 582 427 725 681 857 928 826 1107 1573 1523 1581 1797 1530 2626 2084 2358 2412 2490 2285 1793 2026 3163 3954 3636 3340 3123 2562 2329 2130 1720 2203 2205 1985 1434 1705 1490 1128 309 186 448 173
320 441 369 400 256 942 1099 1060 1902 2016 1731 1181 1541 1669 2017 3021 2127 1967 2264 2521 2676 2527 2241 1842 2008 2488 2699 2931 3051 2719 2251 2378 2330 2507 2226 2116 1757 1790 1346 1310 601 262 624 345
270 940 1112 453 1075 1698 1917 2417 2482 2616 2299 1704 1640 1593 1961 1902 1816 1977 2331 2379 2364 2281 2135 1927 1691 1713 1622 2031 2519 2833 2192 1629 1355 1342 1381 1527 1790 1506 1558 1664 1204 443 377 419
402 641 318 335 981 1728 1880 2346 2782 2734 2662 1906 1756 1680 1705 1860 1984 2064 2319 2312 2260 1843 1786 1881 1830 1373 1356 1328 1510 1484 1461 1386 1166 1013 1095 971 997 706 557 535 1060 713 632 321
247 257 700 369 964 1065 2191 2704 2936 2680 2411 2085 1901 1957 2017 2352 2169 2322 2469 2301 1802 1637 1455 1408 1360 733 623 547 504 420 561 687 740 690 699 658 549 469 372 348 271 234 287 387
249 870 551 1277 1742 1443 2515 2492 2632 2451 2384 2208 2067 2060 2024 2147 2236 2106 2031 1848 1658 1458 1282 1334 1172 1089 892 463 388 219 176 244 275 293 309 258 183 219 185 200 114 183 390 433

GFSCGP_con_mucape_054.txt.gz
CAPE
0 0 0 0 1 13 2 0 0 111 128 0 0 0 142 76 172 514 1551 1751 1688 1872 2134 2330 2329 2764 3302 3831 4421 4552 4455 3824 3196 3144 2844 1648 921 28 30 230 707 610 458 683
0 0 0 0 0 5 9 8 126 166 120 0 0 75 26 217 182 161 650 790 1608 1717 2538 2719 3159 3147 3604 4201 4642 4940 4405 3567 3307 3187 3214 2756 1664 459 264 862 884 773 1478 1372
0 0 0 0 0 0 54 19 57 88 14 2 0 27 66 8 79 98 16 961 1991 1978 2733 3199 3406 3629 3453 4431 4812 4940 4326 3803 3276 2890 2546 2092 1554 1781 1359 1601 2461 2429 2277 1910
0 0 0 0 0 0 42 0 3 13 21 15 0 25 407 24 15 147 128 159 1314 2183 3221 3588 3778 3992 3828 4105 4702 5102 4384 3864 3763 2834 2670 2520 1247 1543 2189 2803 2446 1895 1786 1847
0 0 0 0 0 0 0 0 0 4 3 0 19 44 380 88 205 68 422 719 781 2435 3190 3430 3371 4037 3933 3968 4516 4786 4377 3884 3758 2572 2678 2259 2495 2048 2697 2624 2634 2149 1897 1865
0 0 0 0 0 0 0 0 1 0 0 27 104 60 317 14 42 389 752 821 928 2031 2549 3718 3821 4170 4221 4146 4245 4472 4138 3701 3160 2651 2659 2876 3038 2759 2565 2536 2401 1991 1790 1559
0 0 0 0 0 0 0 0 11 31 21 37 149 36 372 227 379 344 696 1048 1188 1942 2405 3738 4173 4362 4565 4433 4139 4341 3894 3434 3060 2490 2386 2747 3298 2842 2738 2356 2241 1351 1494 1187
0 0 0 0 0 0 0 0 23 282 191 132 377 205 343 458 359 430 250 550 1318 1887 2396 3092 3969 4458 4407 3974 4152 4064 3724 3195 2793 2448 2630 3077 2708 2354 2122 1816 1912 1519 1069 948
0 1 0 0 0 0 0 0 0 55 59 65 78 51 281 174 275 434 856 1133 1622 1686 2371 2727 3786 4131 4479 4224 4115 4005 3792 3534 3239 2400 2760 2409 2282 754 632 1295 1568 1090 1121 797
1 0 0 0 0 0 0 14 45 24 228 289 191 598 159 286 532 1234 1626 2198 2526 2209 2498 3119 3800 4129 4144 3941 4250 3715 3397 3313 2726 2369 1670 1088 484 323 483 959 1150 1297 1109 690
0 0 17 6 0 2 7 8 175 138 191 212 283 527 155 188 892 1582 2086 2475 2623 2412 2666 3107 3604 4090 3911 3758 3514 3175 3361 2996 1818 1421 1388 1013 158 171 536 768 1144 1052 1052 694
0 0 13 31 10 1 0 27 78 123 519 279 128 474 118 185 1616 1852 1784 2244 2387 2253 2584 3113 3313 4171 3825 3554 3310 3340 3083 2643 1698 1512 1362 534 46 94 738 559 800 790 718 419
0 16 0 27 36 67 38 4 94 197 603 570 286 332 93 177 971 1756 2034 2236 2578 2582 2840 3412 4187 4511 3877 3198 3533 3114 2994 2383 1585 1253 513 321 716 1202 1256 862 885 795 663 487
0 8 51 1 78 106 160 63 54 157 386 426 264 845 625 388 712 1883 2431 2728 2472 2798 3451 3890 4819 4636 4496 4100 3544 2761 2160 1609 1143 696 490 1093 1488 1425 982 1011 986 796 623 413
18 241 4 1 16 19 39 10 55 32 23 130 258 844 563 413 765 1050 1501 2226 2147 2496 3230 4276 4700 5030 4477 3954 3308 2417 2203 1483 1084 1024 1295 1392 1804 1380 1098 995 885 798 652 480
0 155 0 0 11 1 14 23 51 18 15 26 200 663 650 120 172 0 1496 1894 1659 2009 2323 3350 3753 4956 4691 3996 3232 2854 1929 1511 1352 1582 1684 1847 1801 1498 575 1071 924 916 670 652
270 131 327 10 19 23 9 9 0 28 118 64 209 603 416 67 13 1171 2052 1921 1752 1978 2410 3085 3419 4645 4677 3853 3648 2569 2147 1985 1888 1890 2014 1982 1652 1224 865 813 280 346 781 745
866 2044 475 165 325 95 25 11 0 5 126 535 755 500 537 874 783 1954 2405 2092 2343 2371 1927 2344 3337 4634 4377 3956 3362 3243 2724 2494 2298 2517 2319 2204 1976 1057 409 359 287 197 285 372
94 770 776 373 98 52 47 104 51 7 105 249 1461 952 1252 1962 2217 1979 3039 3022 2990 3263 3244 3294 3439 4226 3985 3427 3107 3248 2731 2608 2680 2523 2557 2389 2282 1125 711 863 680 722 206 140
69 1475 445 627 309 204 472 867 452 134 430 1431 683 415 395 2025 2050 2512 2362 2357 2518 2573 2601 2660 2930 3988 3784 3717 3954 3800 3156 2704 2475 2860 2818 2361 2143 2011 1314 1403 1032 568 489 223
302 506 430 306 380 437 1553 717 471 493 1530 1224 785 365 401 2001 2481 1917 957 2808 2748 2436 2173 2539 3692 4117 4016 3910 3543 3749 3549 3152 2548 2607 2819 2642 2139 1975 1813 1841 1539 802 327 163
329 443 339 573 622 552 1472 643 609 1837 2444 1426 1593 2788 3237 2795 1521 1129 2382 3065 3152 2446 2050 2289 3448 3252 3200 3760 3435 3762 3494 3548 3046 3349 3032 2575 2190 1640 1725 1878 1251 797 784 572
338 983 328 889 803 841 985 1272 1989 2462 1743 2149 1367 2438 2896 2243 2532 2586 2999 2795 2674 2615 2310 2133 2128 2717 2741 2573 2684 3272 2732 2586 2368 2176 2502 2364 2251 1808 1988 1350 1135 915 795 514
419 365 375 1228 653 131 747 1886 1769 1655 1897 1913 1150 1298 1396 1767 2142 2516 2720 2747 2490 2240 2289 2211 1801 1421 1601 1613 1869 2145 2257 1910 1759 1439 1778 1886 1558 1278 1122 888 717 771 659 572
151 33 49 779 1611 1319 1914 2291 2440 2346 2487 1890 1706 1729 1980 2431 2358 2729 2708 2609 2259 1984 1659 2007 1601 1126 779 851 713 832 903 710 935 1062 954 1119 851 894 940 909 717 637 507 472
78 67 28 210 607 1145 1901 2036 1986 2311 1886 1733 1727 1870 2015 2292 2424 2580 2230 2051 2137 1748 1639 1813 1405 1270 1006 672 660 887 896 864 827 479 442 520 501 256 267 311 272 258 259 239

GFSCGP_con_mucape_060.txt.gz
CAPE
0 0 0 0 0 0 0 0 0 0 8 0 0 0 2 32 46 404 684 1022 681 771 1307 1529 1829 2011 2134 2788 2676 2717 2619 2407 2317 1791 1783 1450 132 128 115 31 51 123 54 197
0 0 0 0 0 0 0 0 0 0 0 1 1 1 0 7 30 166 587 1132 1012 968 1224 1650 1911 2264 2570 3077 2887 2691 2551 2589 2310 1963 1971 1551 381 28 19 70 391 228 164 243
0 0 0 0 0 0 0 0 0 0 0 19 28 5 62 27 152 278 457 972 1087 1209 1408 1658 1889 2430 2988 3111 2946 2844 2856 2863 2455 2225 1972 1673 492 130 96 402 748 920 773 725
0 0 0 0 0 0 0 0 0 0 5 9 6 0 72 22 234 168 140 762 1174 1453 1498 1670 1979 2593 2922 3184 3247 3153 3162 2991 2685 2212 1802 1361 258 232 414 804 861 1305 1053 759
0 0 0 0 0 0 0 0 0 0 0 23 0 0 0 114 185 130 182 386 1011 1193 1127 1733 2125 2481 2986 3640 3546 3304 3173 3011 2560 2052 1443 960 291 736 1001 1062 1144 649 665 556
0 0 0 0 0 0 0 0 0 0 0 0 0 0 0 15 19 0 282 951 1088 1351 1437 1930 2269 2556 3424 3908 3626 3450 3057 2716 2493 2527 1679 1554 1079 1329 1342 981 636 625 541 498
0 0 0 0 0 0 0 0 0 0 0 0 0 0 5 6 11 0 15 703 704 880 2199 2653 2899 2858 3851 3871 3743 3299 2960 2853 2675 2190 1665 1335 1281 1532 937 715 573 695 566 499
0 0 0 0 0 0 0 0 0 0 0 0 0 0 56 108 356 290 585 1309 1658 2203 2538 2563 2549 2957 3994 3836 3620 2992 2691 2552 2031 1596 1382 1402 1578 969 522 363 532 499 235 213
0 0 0 0 0 0 0 0 0 0 0 0 0 3 0 300 633 786 1257 2230 2061 2279 2520 1964 741 3101 3909 3488 3256 2670 2537 2222 1722 1658 1549 1529 1049 225 99 215 301 238 127 116
0 0 0 0 0 0 0 0 0 0 0 0 0 8 14 467 1311 1252 1964 2376 1868 852 1254 2096 1307 3192 3642 3472 3202 2629 2333 2021 1832 1619 1434 1405 937 71 0 104 175 141 105 73
0 0 0 0 0 0 0 0 0 0 0 15 15 9 73 516 1176 1509 1489 1780 1439 49 568 1041 2532 3323 3233 3137 3042 2866 2302 2223 1762 1504 1195 1011 787 0 16 207 208 167 90 19
0 0 0 0 0 0 0 0 0 0 0 66 32 27 99 200 697 575 911 362 43 9 455 1689 3376 3304 3187 3202 2798 2472 2059 1804 1506 1295 1104 802 758 295 317 247 120 66 34 71
0 0 0 0 0 0 0 0 0 0 0 0 4 12 37 38 177 480 707 111 548 1180 1453 2092 3424 3468 3265 3069 2571 2240 1979 1687 1508 1422 745 44 288 286 249 134 100 100 28 46
0 0 0 0 3 0 0 0 2 0 0 0 0 63 461 21 35 59 537 1293 1854 2208 2854 3176 3438 3353 3198 2801 2441 2102 1728 1409 1405 785 0 197 277 275 168 112 102 69 9 0
9 0 0 0 0 0 0 0 5 0 0 0 5 112 264 82 31 15 46 874 1803 2742 3194 3444 3410 3249 2867 2606 2337 2038 1702 1430 1071 13 290 538 617 186 131 61 60 39 13 0
197 2 0 0 0 0 0 0 16 0 0 82 24 212 505 187 242 222 56 477 1429 2493 3334 3306 3194 2922 2865 2568 2348 1886 1540 1044 231 286 489 868 739 306 253 191 139 85 58 35
236 128 308 0 0 7 0 6 0 0 0 34 191 421 441 718 585 243 508 1345 1937 3417 3485 3384 3190 3023 2815 2786 2155 1246 990 764 241 661 982 1016 829 464 296 256 185 123 94 98
123 255 270 286 98 0 3 40 30 298 142 418 171 225 884 496 284 388 987 1315 1770 3163 3489 3593 3448 3115 3204 2703 1908 1462 865 493 834 1125 1049 987 730 421 451 395 356 226 194 169
40 167 129 2 33 102 176 139 887 772 280 698 278 88 426 337 202 1263 710 956 2182 2942 3261 3721 3638 3304 3385 2800 2136 1636 1460 824 929 1232 1331 1025 720 553 507 392 375 205 135 99
0 0 7 17 0 0 490 612 767 550 146 781 453 185 103 315 1735 1021 2292 2354 2713 2952 3322 3653 4009 3772 3383 2710 2431 1920 1845 1550 957 1199 1409 1359 1139 1061 667 552 301 259 218 162
0 0 0 0 4 0 173 1084 956 205 435 951 955 251 295 929 1093 1740 2548 2132 1818 2225 2942 3395 3663 3521 3500 3004 2642 2039 1975 1757 1415 1538 1647 1737 1558 1404 1264 917 629 406 383 328
152 43 87 10 1 7 342 561 683 451 700 775 766 270 394 510 1663 1987 1896 1546 1321 2514 3222 3430 3420 3386 3088 2739 2409 2237 2130 1836 1817 2077 2127 1846 1719 1611 1567 1173 847 649 536 416
85 4 25 273 185 28 42 258 159 214 348 477 526 729 238 324 237 1002 1731 1558 1568 2186 2941 3376 3218 3120 2956 2778 2581 2132 2344 2075 1971 1904 2036 1920 1956 1870 1787 1490 1093 1004 797 612
21 3 24 30 71 46 56 21 40 62 111 378 480 514 343 329 325 820 857 695 975 1626 1897 2158 3018 3126 2956 2864 2791 2542 2229 1872 2012 2096 2161 2219 2066 1788 1682 1638 1368 1319 1125 915
13 12 0 87 1 0 0 5 68 32 6 2 221 254 122 74 442 778 404 92 549 1517 1404 1066 978 1769 2962 2791 2404 2140 1847 1548 1426 1631 1697 1673 1696 1714 1657 1414 1279 1159 1168 1088
29 7 5 2 0 3 0 1 1 3 0 0 0 49 240 75 140 553 486 459 1283 1484 1071 565 383 368 536 952 976 942 752 390 366 482 690 568 539 802 694 409 427 592 598 729

GFSCGP_con_mucape_066.txt.gz
CAPE
0 0 0 0 0 0 3 0 0 3 0 75 47 22 51 163 715 776 837 924 1001 1121 1118 1190 1261 1341 1407 1304 1398 1606 1744 1822 1643 1642 1241 891 126 145 72 25 24 33 24 59
0 0 0 0 0 0 4 9 0 5 0 12 2 0 5 81 412 797 850 866 945 1041 1137 1256 1300 1338 1388 1274 1287 1501 1568 1547 1511 1503 1197 1040 181 79 45 27 6 65 47 59
0 0 0 0 0 0 0 1 0 0 0 0 0 0 0 0 119 447 787 838 898 994 1098 1208 1253 1330 1413 1517 1455 1522 1513 1514 1668 1416 1220 1059 250 31 18 86 257 202 84 110
0 0 0 0 0 0 0 4 0 0 3 2 0 0 0 0 0 13 46 125 416 850 1043 1000 1096 1317 1426 1629 1799 1488 1019 973 1172 1332 1328 1048 665 74 27 260 481 719 504 378
0 0 0 0 0 0 0 0 0 0 0 4 0 0 0 0 0 0 5 48 303 475 738 906 991 1309 1603 2026 1661 469 19 0 106 755 1256 1109 828 89 70 381 700 744 541 480
0 0 0 0 0 0 0 2 0 0 0 0 0 0 9 0 0 0 3 30 119 566 612 821 1265 1728 2075 2310 1745 884 257 131 291 658 1094 1000 302 104 619 676 743 607 416 320
0 0 0 0 0 0 0 0 0 0 0 0 0 0 0 0 9 85 133 21 111 428 682 1244 1776 2312 2741 2628 2170 1428 430 327 751 996 1103 639 351 509 738 624 482 380 321 283
0 0 0 0 0 0 0 0 0 0 0 0 0 0 0 0 812 531 104 36 359 445 550 1086 1537 1358 1261 2580 2681 1864 1294 877 1108 1429 1191 939 735 936 814 431 162 223 309 230
0 0 0 0 0 0 0 0 0 0 0 0 0 0 0 156 1087 720 507 561 640 745 668 821 937 526 383 1284 2233 2279 1331 1554 1704 1347 1087 951 844 880 374 90 107 139 140 153
0 0 0 0 0 0 0 0 0 0 0 0 0 0 0 0 535 1140 702 1020 1190 1209 1150 1037 970 686 219 993 1764 2184 2129 1881 1521 922 852 786 684 267 104 57 67 105 119 154
0 0 0 0 0 0 0 0 0 0 0 0 0 0 2 4 438 1305 1049 1156 1135 832 795 805 604 510 581 896 1385 1487 2064 1768 1173 1021 971 890 427 20 64 68 76 101 107 74
0 0 0 0 0 0 0 0 0 0 0 0 0 0 5 53 515 1052 1304 1290 1354 1387 1381 1082 271 420 276 604 17 666 1498 1623 1264 1152 990 679 99 8 9 14 32 40 25 1
0 0 0 0 0 0 0 0 0 0 0 0 0 0 0 83 946 1201 1711 1507 1478 1636 1253 454 363 366 84 101 484 1087 1465 1632 1266 1090 636 463 245 91 37 6 6 0 0 0
0 0 0 0 0 0 0 0 0 0 0 0 0 0 0 20 286 833 1393 1991 2150 1700 408 628 661 469 679 811 1587 1782 1900 1740 1274 976 600 545 290 215 77 1 0 3 4 9
0 0 0 0 0 0 0 0 0 0 0 6 13 27 59 44 46 210 670 1165 1731 1000 269 1258 872 369 698 1933 1747 1914 1969 1782 1219 863 816 633 275 235 56 16 6 6 35 20
23 8 0 0 0 0 0 0 0 10 5 26 52 110 255 319 219 116 212 415 363 333 1262 2071 1329 1237 1383 1761 2031 2260 1792 1527 1117 928 455 246 306 243 141 100 81 10 0 1
47 65 14 0 21 0 0 287 120 633 724 229 345 474 420 262 150 125 129 217 263 440 1660 2550 2375 1439 1579 1840 1996 2006 1637 1460 1053 755 87 325 405 357 253 132 22 8 0 0
20 45 89 50 20 0 393 625 564 900 834 890 815 654 373 269 222 269 191 204 320 440 2014 2816 2509 2123 1860 2151 2079 1751 1583 1409 1072 213 196 392 464 376 323 271 199 134 86 22
0 4 15 67 19 0 230 335 597 699 956 809 845 486 409 231 280 805 1673 233 671 796 1998 2869 2766 2511 2218 2179 2055 1713 1658 1568 965 252 281 539 616 438 474 462 403 306 233 155
0 0 0 0 0 26 42 496 650 795 478 717 798 521 939 311 211 439 2082 1440 1880 2107 2583 2793 2640 2405 2167 1875 1327 1136 1501 1406 956 415 346 564 735 714 612 534 465 471 410 294
1 0 0 0 0 69 55 194 868 288 271 604 748 499 705 1283 1433 1584 2403 2119 2081 1988 2111 2363 2410 2175 2004 1527 1257 1368 1268 803 773 473 478 631 857 899 818 620 567 571 516 442
9 64 11 0 0 32 33 82 321 193 277 281 442 666 524 459 1209 1757 1662 2090 1663 1264 1144 885 1334 1625 1881 1238 904 891 1244 1228 767 299 607 900 974 898 895 713 653 650 579 489
28 60 120 196 30 124 46 29 31 87 118 124 88 83 103 422 419 444 1324 989 920 571 497 631 316 459 821 1458 1727 1447 1500 1384 1140 664 498 714 1035 1052 955 985 777 696 832 796
27 46 100 50 37 47 37 28 15 26 32 31 33 24 4 0 7 236 265 826 914 621 472 602 661 811 664 902 1146 1303 1420 1302 1218 913 1016 833 814 911 903 822 909 1107 992 886
13 22 20 14 8 0 0 0 0 0 0 0 0 0 0 0 0 0 0 127 424 537 778 860 1013 1068 1220 1194 1198 1260 1342 1247 1166 1086 831 824 785 878 1228 960 1156 1513 1276 1153
7 10 6 4 0 0 0 0 0 0 0 0 0 0 0 0 0 0 0 0 210 375 324 593 592 739 1024 1373 1117 1101 942 745 711 846 806 898 995 1047 1115 913 867 564 495 484

GFSCGP_con_mucape_069.txt.gz
CAPE
0 0 0 0 0 0 0 0 0 0 0 0 0 99 209 167 677 848 944 1269 1327 1201 1205 1355 1358 1588 1674 1746 2119 2352 2567 2787 2117 1653 1740 1237 888 778 496 375 401 613 602 679
0 0 0 0 0 0 0 0 0 0 5 0 0 79 145 137 154 363 776 1031 1183 1102 1190 1342 1516 1642 1652 1782 2037 2004 1699 1766 1601 1595 1703 1467 687 519 512 473 452 384 379 381
0 0 0 0 0 0 0 0 0 0 6 0 0 0 0 7 32 101 315 762 1009 1088 1133 1345 1600 1768 1681 2023 1208 961 651 722 869 1172 1373 997 616 236 267 295 330 478 566 514
0 0 0 0 0 0 0 0 0 0 0 0 0 0 8 0 12 42 63 288 729 901 1061 1302 1601 1824 1869 1222 1168 940 79 359 404 538 1319 1214 1007 853 295 464 846 1140 903 687
0 0 0 0 0 0 0 0 0 0 0 0 0 0 0 0 0 60 10 48 122 454 883 1100 1379 1724 1325 1160 1154 888 283 0 0 278 1061 1334 1239 811 393 927 1633 1927 1702 1464
0 0 0 0 0 0 0 0 0 0 0 0 0 0 0 0 28 41 34 64 155 307 567 830 1226 2043 1373 1198 1057 577 435 24 105 86 547 1126 1291 1047 886 1296 1891 1659 1350 1361
0 0 0 0 0 0 0 0 0 0 0 0 0 0 0 0 0 195 711 580 128 610 716 1108 1758 2259 1492 1007 652 530 375 481 404 232 442 669 1171 850 1624 2040 2075 1728 478 500
0 0 0 0 0 0 0 0 0 0 0 0 0 0 0 0 619 782 561 296 175 609 1222 1725 2265 2710 1630 1539 964 1075 809 859 158 531 589 963 1014 772 1694 1765 1517 284 468 256
0 0 0 0 0 0 0 0 0 0 0 0 0 0 0 0 406 991 892 824 698 839 1225 1810 1995 2102 2478 1796 1274 1216 1165 890 916 1059 1488 1816 1763 1655 1606 1217 730 451 554 117
0 0 0 0 0 0 0 0 0 0 0 0 0 0 0 99 138 1256 1182 1185 1223 1136 1337 1588 1293 924 1329 1975 3059 2297 1830 1056 1082 1561 1908 1597 1383 1011 965 871 906 838 706 518
0 0 0 0 0 0 0 0 0 0 0 0 0 0 131 251 433 1631 1418 1469 1652 1489 1463 1044 946 918 989 2049 2285 1936 1880 1652 1293 1444 1274 826 506 367 781 801 811 776 760 760
0 0 0 0 0 0 0 0 0 0 0 0 0 0 0 35 317 1399 1594 1530 1183 862 1065 1072 831 927 1111 1631 1586 1919 1737 1484 1383 1208 857 705 268 571 659 725 683 674 680 562
0 0 0 0 0 0 0 0 0 0 0 45 10 0 39 164 262 412 1201 1470 1305 1316 1371 918 645 839 953 599 292 699 1280 1511 1593 1179 878 524 384 592 618 641 605 500 463 485
0 0 0 0 0 0 0 0 0 0 19 50 16 93 134 434 295 376 643 1655 1403 1405 1502 564 927 953 478 626 300 452 1254 1620 1462 1023 703 418 482 720 637 601 512 423 464 439
0 20 0 0 0 0 0 0 0 0 29 74 94 92 250 747 386 411 410 1168 1376 1533 1703 573 921 1153 1062 1093 1067 1315 1464 1667 1312 937 716 478 414 742 537 524 488 412 408 406
55 290 4 0 6 0 113 3 0 1 4 122 137 239 970 592 263 344 388 476 1083 1612 1708 665 1159 591 1337 2119 1976 1579 1950 1833 1351 1005 826 648 736 671 508 535 529 487 404 317
24 200 161 31 60 0 152 745 348 941 1048 959 674 1109 960 811 424 486 433 368 508 902 779 792 1613 887 933 2233 2185 1717 1752 1846 1428 1049 841 672 838 655 584 635 631 581 311 278
15 218 218 164 72 52 665 1063 981 1082 869 919 1009 943 917 916 513 1776 1890 880 574 435 681 1035 2127 2497 1739 2175 2059 1828 1638 1808 1500 1069 781 694 869 811 725 683 719 647 512 406
0 21 53 268 134 148 511 603 987 979 1096 652 833 921 950 1125 529 798 1753 2013 1548 1415 1110 2104 3767 3142 2559 2418 1826 1771 1679 1637 1367 1034 505 798 987 847 794 799 895 780 690 618
0 0 13 127 195 249 338 303 542 677 970 559 685 849 938 1468 916 1754 1623 1869 1716 2028 2476 3469 3524 3119 2637 2146 1810 1859 1668 1484 1339 1086 733 948 1141 1085 905 1024 1062 964 843 827
38 4 0 27 22 106 213 249 514 1251 527 570 677 699 549 967 989 1358 1930 2011 2040 2205 2680 3119 3346 3179 2976 2560 2074 1769 1518 1362 1144 906 563 1026 1272 1411 1355 1266 1235 1076 916 817
241 331 64 0 33 188 58 662 796 557 349 361 388 416 474 520 630 795 1280 1880 1451 1674 1831 1942 2965 3188 2784 2417 2015 1919 1859 1946 1335 1022 942 1042 1447 1360 1420 1497 1235 915 997 1081
353 107 658 417 275 130 55 74 103 131 118 119 132 136 115 106 220 337 418 655 1522 1301 1287 1255 1318 1324 2039 2334 1923 2272 2117 1330 1154 1189 1190 1214 1321 1540 955 804 916 784 959 997
102 73 187 91 300 215 98 51 65 76 89 83 99 60 46 26 0 0 0 127 327 685 1155 1246 1195 1074 1240 1228 1881 2186 1818 1330 1283 1217 985 1371 1764 1590 813 456 691 948 1095 1015
34 58 74 44 111 78 29 96 86 98 38 36 0 0 0 39 61 27 35 48 71 223 616 746 851 843 946 1197 957 1000 1315 1320 1396 1364 1219 1050 944 895 868 652 602 977 831 786
32 106 24 14 11 10 18 45 131 200 153 48 0 3 40 219 6 8 9 10 55 292 720 773 765 533 646 1090 1258 1079 1076 1169 1101 884 787 714 639 584 545 457 484 763 904 864

GFSCGP_con_mucape_072.txt.gz
CAPE
0 0 0 0 0 0 0 0 0 0 0 0 0 0 0 8 170 385 653 1123 1363 1444 1344 1525 1647 1821 2036 2416 2903 3199 3207 3357 3016 2540 2237 2147 2867 1517 711 584 922 965 1255 325
0 0 0 0 0 0 0 0 0 0 0 0 0 0 0 0 4 100 322 806 1214 1291 1267 1393 1873 2006 2101 2294 2852 3106 2830 2722 2492 1567 612 2563 2119 1110 683 627 775 878 1019 1145
0 0 0 0 0 0 0 0 0 0 0 0 0 0 0 0 0 36 120 325 835 1133 1116 1464 1918 2187 2123 2463 2684 1812 2143 2256 1780 1233 1867 1969 1291 961 788 488 854 872 830 1046
0 0 0 0 0 0 0 0 0 0 0 0 14 0 3 0 0 0 46 161 433 864 1042 1238 1885 2364 2281 2926 1678 589 752 1750 1817 2098 2149 2166 1732 1688 988 464 517 984 1049 984
0 0 0 0 0 0 0 0 0 0 0 0 0 0 10 1 0 9 173 229 255 510 953 1230 1557 2297 2719 1856 948 740 359 945 1430 1618 1247 1263 1411 1857 1611 770 1152 1936 1837 1465
0 0 0 0 0 0 0 0 0 0 0 0 0 13 0 60 7 0 143 456 651 411 539 1045 1492 2621 2230 1417 996 576 88 48 737 496 979 1668 1818 1984 1863 1112 2322 2444 2483 2339
0 0 0 0 0 0 0 0 0 0 0 0 17 0 0 5 0 24 616 783 639 624 722 955 1829 2623 2138 1408 991 268 507 563 588 670 1271 1812 2030 2158 2250 1816 1305 1378 1115 1626
0 0 0 0 0 0 0 0 0 0 0 11 1 0 0 0 16 492 867 899 466 865 1100 1340 2159 2557 2231 1495 929 458 945 1258 1474 914 949 1011 1500 1561 1146 1577 1540 1291 422 374
0 0 0 0 0 0 0 0 0 0 0 0 4 0 0 0 0 7 707 1075 950 1363 1857 2185 2178 2935 2006 1814 1233 1039 973 1556 1773 1312 1802 1621 2107 1776 1659 1608 1129 1303 421 129
0 0 0 0 0 0 0 0 0 0 0 2 0 0 0 0 0 129 982 1561 1470 1538 1956 2416 2859 3277 2120 2011 1618 1458 1395 1842 1903 1713 2676 2512 2432 2082 1759 1505 863 879 1079 395
0 0 0 0 0 0 0 0 0 1 4 19 19 15 0 0 188 937 1671 1909 1809 1727 1808 2180 1836 2097 2131 2286 2606 1727 1053 1531 2069 2189 2340 2324 1774 1409 1127 1111 1078 985 1123 938
0 0 2 0 0 0 0 0 0 0 9 0 0 1 277 413 604 886 1878 2029 2206 2129 2123 1746 1758 1754 1858 2353 3084 2154 1647 2391 2156 2019 1903 1750 1033 1043 1181 1075 1187 1247 1154 833
0 0 0 3 0 0 0 0 0 0 107 52 21 57 354 578 712 806 1241 2131 1588 1322 1439 1827 1502 1389 1922 2434 2983 2692 2525 2550 2077 1893 1748 1237 961 1070 1116 1067 1019 856 752 657
0 1 7 17 27 10 0 0 0 0 31 25 45 211 955 1048 1000 1014 861 1942 2112 1509 1417 1673 1400 1535 2008 1408 1680 2291 2278 2210 2226 1868 1460 1191 838 1003 1019 972 840 719 665 652
15 157 50 10 1 0 5 0 0 4 52 144 101 242 1283 1224 1082 970 873 1251 2086 1893 1512 1700 1853 1846 1905 1693 955 1464 2302 2614 2466 2012 1380 1311 1121 1106 993 767 705 613 734 680
322 581 197 65 53 5 2 9 16 55 84 232 261 978 1301 1217 1073 1503 1179 951 1911 2271 1574 1964 1683 2037 2129 1808 1831 2151 2574 2852 2641 2070 1558 1324 1312 1236 1019 778 692 650 691 747
383 694 540 232 139 179 368 330 103 512 631 952 471 1657 1377 1336 1292 2120 2208 1444 1070 1487 2230 2719 1793 1586 2163 2294 2220 2295 3111 2846 2465 2089 1782 1569 1647 1315 1102 805 722 632 635 650
236 556 540 477 289 156 1378 1257 999 1184 1516 1532 1579 1455 1433 1576 1395 1885 2355 2473 1727 1060 1217 1568 1625 1786 1714 2448 2938 3228 3014 2068 2236 2242 1729 1818 1656 1384 1222 999 899 799 714 650
75 192 219 210 242 700 969 1345 1436 1374 1494 1444 1611 1544 1466 1619 1209 2073 2300 2585 2521 2368 2633 2222 2029 2568 2850 1816 2701 3064 2444 2131 2426 2126 2052 1765 1511 1548 1354 1231 1136 1034 913 1122
65 192 139 145 175 289 1122 909 988 1375 1565 1247 1467 1606 1463 1683 1141 2227 1900 2558 2412 2464 2325 2709 3929 4502 3941 3653 3378 2964 2805 2597 2665 2391 2041 1562 2000 1666 1476 1428 1371 1354 1335 1274
147 100 22 47 105 580 543 518 746 1438 1441 1014 1094 1076 1058 1525 1429 1497 1659 1789 2372 2370 2096 2932 3978 4034 4019 3849 3361 3159 3170 2918 2807 2089 1631 1425 1743 1785 1788 1672 1618 1570 1598 1378
289 189 24 3 38 127 297 1018 1507 954 800 478 463 478 498 452 633 727 773 1043 1521 2224 1883 1778 2023 3203 3594 3650 3562 3554 3344 3118 2881 2336 1797 1480 1879 1880 1743 2099 1883 1850 1876 1771
808 828 1082 1245 1047 487 311 351 418 383 607 591 626 559 466 388 275 359 440 444 781 1239 1579 1972 1870 1764 1782 3027 3009 3202 3060 2915 3070 2558 2091 1656 1833 2034 2046 2305 2239 1968 1978 1680
927 707 1009 1061 664 236 233 235 258 313 382 354 187 142 141 423 431 251 314 450 591 600 1001 1128 1606 1710 1862 1920 1931 1919 2430 2779 2797 2695 2481 2172 1890 1918 2209 2218 2045 1660 1218 1294
651 667 283 249 184 129 205 289 220 271 299 287 274 319 403 446 381 311 357 164 303 597 768 956 1349 1514 1487 1445 1073 1303 1970 1971 2413 2704 2253 2205 1821 1799 2667 2188 1088 726 1029 1185
199 241 160 109 239 149 275 381 340 264 302 401 471 508 496 475 546 337 304 282 472 640 774 963 1202 1242 1312 1056 610 768 1146 1206 2143 2465 2744 2504 1564 1422 1178 860 534 362 519 467